Regional Weather Roundup
Issued by NWS

Home | Current Version | Previous Version | Graphics & Text | Print | Product List | Glossary On
Versions: 1 2 3 4 5 6 7 8 9 10 11 12 13 14 15 16 17 18 19 20 21 22 23 24 25 26 27 28 29 30 31 32 33 34 35 36 37 38 39 40 41 42 43 44 45 46 47 48 49 50
965
ASUS43 KLOT 221403
RWRIL

ILLINOIS REGIONAL WEATHER ROUNDUP
NATIONAL WEATHER SERVICE CHICAGO/ROMEOVILLE IL
900 AM CDT FRI SEP 22 2017

NOTE: "FAIR" INDICATES FEW OR NO CLOUDS BELOW 12,000 FEET WITH NO
SIGNIFICANT WEATHER AND/OR OBSTRUCTIONS TO VISIBILITY.

* THESE STATIONS ARE NOT UNDER NWS QUALITY CONTROL. THEY ALSO MAY NOT
  REPORT WEATHER SUCH AS PRECIPITATION OR FOG.

ILZ001-002-007-009-015-016-024-221500-
NORTHWEST ILLINOIS

CITY           SKY/WX    TMP DP  RH WIND       PRES   REMARKS
MOLINE         SUNNY     78  68  71 S7        30.02S HX  80
STERLING*      SUNNY     78  70  76 VRB3      30.06R HX  80
SAVANNA*         N/A     75  69  82 S7        30.04R
$$

ILZ003-004-008-010-011-017-018-221500-
NORTH CENTRAL ILLINOIS

CITY           SKY/WX    TMP DP  RH WIND       PRES   REMARKS
ROCKFORD       MOSUNNY   76  69  79 S9        30.07R
FREEPORT*      SUNNY     76  68  78 S9        30.07R
ROCHELLE*      MOSUNNY   76  70  80 S7        30.07S
DE KALB*       SUNNY     77  70  79 S8        30.09R
PERU*          SUNNY     75  67  76 S6        30.08R
$$

ILZ005-006-012>014-019>023-221500-
NORTHEAST ILLINOIS

CITY           SKY/WX    TMP DP  RH WIND       PRES   REMARKS
CHICAGO-OHARE  MOSUNNY   80  67  64 SW5       30.07S HX  82
CHICAGO-MIDWAY MOSUNNY   82  68  62 S6        30.08S HX  85
AURORA         SUNNY     77  70  79 S5        30.08R
LANSING*       SUNNY     77  70  77 S3        30.10S
JOLIET*        SUNNY     79  71  76 S3        30.09S HX  82
WAUKEGAN       SUNNY     79  71  76 S8        30.06R HX  82
DUPAGE AIRPORT SUNNY     79  70  74 SW10      30.08R HX  82
KANKAKEE*      SUNNY     76  68  75 CALM      30.11R
WHEELING       SUNNY     81  70  69 S7        30.08R HX  84
MORRIS*        SUNNY     75  69  81 S5        30.07S
ROMEOVILLE*    SUNNY     77  69  75 S5        30.09S
NORTHERLY ISL    N/A     81  65  58 S3          N/A  HX  83
$$

LMZ740>746-221500-
SOUTHERN LAKE MICHIGAN

STATION/POSITION SKY/WX   TEMP    WIND        PRES    VSBY  WAVE
                          AIR SEA DIR/SP/G                  HT/PER
                          (F)     (DEG/KT/KT) (MB)    (MI)  (FT/S)
SOUTHERN BUOY              71 69  140/  8/ 10 1018.1          1
WILMETTE HARBOR            74 71  150/  6/  6   N/A           1
HARRISON CRIB              77     180/ 11/ 12   N/A
BURNHAM HARBOR             81                   N/A
CALUMET HARBOR             78     200/  5/  7 1018.0S
BURNS HARBOR               77     190/  6/  7 1019.6R
MICHIGAN CITY              78     180/  6/  8   N/A
MICHIGAN CITY 6N           73 71  170/  4/  6   N/A           0
ST. JOSEPH                 73 70  190/  4/  4 1019.0R         0
$$

ILZ025>027-034>036-040-047-049-050-058-095>099-221500-
WEST-CENTRAL ILLINOIS

CITY           SKY/WX    TMP DP  RH WIND       PRES   REMARKS
QUINCY         SUNNY     78  69  73 S8        30.04R HX  80
GALESBURG*     SUNNY     76  70  81 S7        30.06S
MACOMB*        SUNNY     76  70  82 S6        30.07S
JACKSONVILLE*  SUNNY     79  69  71 S7        30.07S HX  82
PITTSFIELD*    SUNNY     78  71  79 S8        30.07S
$$

ILZ028>032-037-038-041>044-048-051>054-059>061-221500-
CENTRAL ILLINOIS

CITY           SKY/WX    TMP DP  RH WIND       PRES   REMARKS
PONTIAC        SUNNY     78  72  81 S3        30.10R HX  80
BLOOMINGTON    SUNNY     77  70  79 S8        30.11R
DECATUR        SUNNY     78  69  73 SW6       30.10S HX  80
PEORIA         SUNNY     77  70  79 S7        30.07R
LINCOLN*       SUNNY     77  71  80 S3        30.08S
SPRINGFIELD    SUNNY     80  71  74 S5        30.08S HX  84
TAYLORVILLE    SUNNY     78  69  74 S3        30.09S HX  81
$$

ILZ033-039-045-046-055>057-062-063-221500-
EAST-CENTRAL ILLINOIS

CITY           SKY/WX    TMP DP  RH WIND       PRES   REMARKS
CHAMPAIGN      SUNNY     80  67  64 W6        30.11R HX  82
RANTOUL*       SUNNY     78  71  79 W3        30.11R HX  81
MATTOON        SUNNY     79  71  76 SW5       30.09S HX  82
PARIS*         SUNNY     82  71  70 W5        30.11S HX  85
$$

ILZ079-100>102-221500-
SOUTHWEST ILLINOIS

CITY           SKY/WX    TMP DP  RH WIND       PRES   REMARKS
BELLEVILLE     SUNNY     77  67  73 VRB2      30.10S
CAHOKIA*       SUNNY     78  69  73 S3        30.07S HX  80
SPARTA*        SUNNY     76  71  84 CALM      30.09S
$$

ILZ064>066-069>071-074>076-080>082-084>086-088>090-092>094-221500-
SOUTH-CENTRAL ILLINOIS

CITY           SKY/WX    TMP DP  RH WIND       PRES   REMARKS
CARBONDALE     SUNNY     76  74  93 CALM      30.08R
CAIRO*         SUNNY     76  73  91 CALM      30.08R
EFFINGHAM*     SUNNY     80  72  77 CALM      30.11S HX  83
MARION         SUNNY     79  77  94 SE5       30.09R HX  83
MT. VERNON       N/A     77  72  84 CALM      30.09R
CENTRALIA*     SUNNY     79  73  80 CALM      30.08S HX  83
SALEM*         SUNNY     80  70  73 CALM      30.10R HAZE    HX  83
METROPOLIS*    SUNNY     78  73  84 CALM      30.08S HX  80
$$

ILZ067-068-072-073-078-083-087-091-221500-
SOUTHEAST ILLINOIS

CITY           SKY/WX    TMP DP  RH WIND       PRES   REMARKS
LAWRENCEVILLE  SUNNY     78  72  81 CALM      30.10R HX  80
FLORA*         SUNNY     80  72  77 CALM      30.09S HX  83
FAIRFIELD*     SUNNY     80  70  72 CALM      30.08S HX  83
HARRISBURG*    SUNNY     77  72  83 CALM      30.08S
ROBINSON*      SUNNY     76  71  82 CALM      30.11R
CARMI*         SUNNY     80  72  78 CALM      30.08R HX  83
$$

ABBREVIATIONS USED IN REMARKS
   TC - TEMPERATURE IN CELSIUS
  WCI - WIND CHILL INDEX
   HX - HEAT INDEX
  VSB - VISIBILITY
$$





USA.gov is the U.S. government's official web portal to all federal, state and local government web resources and services.